Location: Le Petit-Vavre
(46.5081°N, 1.5239°E)
Time: 20:57:24
(UTC+00:00)

Cosmos 1821 Rocket - Pass Details

Date: 03 March 2021
Orbit: 945 x 1004 km, 82.9° (Epoch: 20 April)

Event Time Altitude Azimuth Distance (km) Brightness Sun altitude
Exits shadow 20:41:55 53° 15° (NNE) 1,182 4.4 -30.8°
Drops below altitude 10° 20:46:31 10° 10° (N) 2,705 6.5 -31.6°
Sets 20:49:00 0° 10° (N) 3,648 7.2 -31.9°
